Anoka County, MN

5:51 AM CDT on October 17, 2019 (GMT -0500)
Anoka County / Blaine Airport

Weather History for KANE - August, 2019

Change the Weather History Date:

Friday, August 16, 2019

  Actual Average Record
Temperature  
Mean Temperature 72 °F -  
Max Temperature 80 °F 75 °F 87 °F (1998)
Min Temperature 64 °F 57 °F 55 °F (2005)
Cooling Degree Days 7    
Growing Degree Days 22 (Base 50)    
Moisture  
Dew Point 63 °F    
Average Humidity 83    
Maximum Humidity 100    
Minimum Humidity 48    
Precipitation  
Precipitation 0.09 in - - ()
Sea Level Pressure  
Sea Level Pressure 29.81 in    
Wind  
Wind Speed 4 mph (SW)    
Max Wind Speed 12 mph    
Max Gust Speed 17 mph    
Visibility 10 miles    
Events Rain    
Averages and records for this station are not official NWS values.
T = Trace of Precipitation, MM = Missing Value Source: NWS Daily Summary

Daily Weather History Graph

Daily Weather History Graph

Search for Another Location

Airport or City:

Astronomy

Aug. 16, 2019 Rise Set
Actual Time 6:15 AM CDT 8:18 PM CDT
Civil Twilight 5:43 AM CDT 8:50 PM CDT
Nautical Twilight 5:03 AM CDT 9:29 PM CDT
Astronomical Twilight 4:20 AM CDT 10:12 PM CDT
Moon 9:16 PM CDT (8/16) 7:07 AM CDT (8/16)
Length of Visible Light 15h 06m
Length of Day
14h 03m
Full, 99% of the Moon is Illuminated
Aug 16
Full
Aug 23
Last Quarter
Aug 30
New
Sep 5
First Quarter
Sep 13
Full

Hourly Weather History & Observations

Time (CDT) Temp. Heat Index Dew Point Humidity Pressure Visibility Wind Dir Wind Speed Gust Speed Precip Events Conditions
12:15 AM 64.4 °F - 62.6 °F 94% 29.84 in 10.0 mi Calm Calm - N/A   Mostly Cloudy
12:20 AM 64.4 °F - 62.6 °F 94% 29.84 in 10.0 mi Calm Calm - N/A Rain Light Rain
12:38 AM 64.4 °F - 62.6 °F 94% 29.83 in 10.0 mi NE 3.5 mph - N/A   Mostly Cloudy
12:55 AM 64.4 °F - 62.6 °F 94% 29.83 in 10.0 mi Calm Calm - N/A Rain Light Rain
1:16 AM 64.4 °F - 62.6 °F 94% 29.82 in 10.0 mi Calm Calm - 0.01 in   Mostly Cloudy
1:35 AM 64.4 °F - 62.6 °F 94% 29.81 in 10.0 mi Calm Calm - 0.01 in   Mostly Cloudy
1:58 AM 64.4 °F - 62.6 °F 94% 29.81 in 10.0 mi Calm Calm - N/A   Mostly Cloudy
2:17 AM 64.4 °F - 64.4 °F 100% 29.81 in 7.0 mi Calm Calm - N/A   Overcast
2:36 AM 64.4 °F - 64.4 °F 100% 29.80 in 5.0 mi SSE 6.9 mph - 0.01 in Rain Rain
2:56 AM 66.2 °F - 64.4 °F 94% 29.78 in 7.0 mi SSE 4.6 mph - N/A Rain Rain
3:15 AM 66.2 °F - 64.4 °F 94% 29.78 in 10.0 mi SE 6.9 mph - 0.01 in Rain Light Rain
3:19 AM 66.2 °F - 64.4 °F 94% 29.77 in 10.0 mi SE 6.9 mph - 0.01 in Rain Light Rain
3:38 AM 64.4 °F - 64.4 °F 100% 29.77 in 10.0 mi Calm Calm - 0.03 in   Mostly Cloudy
3:55 AM 64.4 °F - 64.4 °F 100% 29.77 in 10.0 mi SE 4.6 mph - 0.03 in   Scattered Clouds
4:15 AM 64.4 °F - 64.4 °F 100% 29.77 in 10.0 mi SE 4.6 mph - 0.01 in   Mostly Cloudy
4:36 AM 64.4 °F - 64.4 °F 100% 29.77 in 10.0 mi SE 4.6 mph - 0.02 in   Overcast
4:59 AM 64.4 °F - 64.4 °F 100% 29.77 in 10.0 mi SSE 3.5 mph - N/A   Overcast
5:16 AM 66.2 °F - 64.4 °F 94% 29.77 in 10.0 mi SSE 4.6 mph - N/A   Overcast
5:35 AM 64.4 °F - 64.4 °F 100% 29.77 in 10.0 mi South 5.8 mph - 0.01 in   Mostly Cloudy
5:56 AM 64.4 °F - 64.4 °F 100% 29.77 in 10.0 mi SW 4.6 mph - N/A   Mostly Cloudy
6:15 AM 66.2 °F - 64.4 °F 94% 29.77 in 10.0 mi SW 4.6 mph - 0.01 in   Overcast
6:37 AM 66.2 °F - 64.4 °F 94% 29.79 in 10.0 mi WSW 6.9 mph - 0.01 in   Overcast
6:52 AM 64.4 °F - 64.4 °F 100% 29.78 in 7.0 mi WNW 6.9 mph - N/A   Overcast
6:55 AM 64.4 °F - 64.4 °F 100% 29.78 in 10.0 mi WNW 9.2 mph - 0.01 in   Overcast
7:45 AM 64.4 °F - 62.6 °F 94% 29.80 in 10.0 mi WNW 9.2 mph - N/A   Mostly Cloudy
8:50 AM 66.2 °F - 62.6 °F 88% 29.81 in 10.0 mi WNW 9.2 mph - N/A   Mostly Cloudy
9:45 AM 66.2 °F - 62.6 °F 88% 29.82 in 10.0 mi West 6.9 mph - N/A   Overcast
10:45 AM 69.8 °F - 62.6 °F 78% 29.84 in 10.0 mi WNW 9.2 mph - N/A   Mostly Cloudy
11:45 AM 73.4 °F - 62.6 °F 69% 29.83 in 10.0 mi WNW 10.4 mph - N/A   Mostly Cloudy
12:45 PM 75.2 °F - 62.6 °F 65% 29.82 in 10.0 mi WNW 9.2 mph - N/A   Scattered Clouds
1:45 PM 77.0 °F - 60.8 °F 57% 29.82 in 10.0 mi WNW 11.5 mph - N/A   Scattered Clouds
2:45 PM 78.8 °F - 59.0 °F 51% 29.82 in 10.0 mi WNW 9.2 mph - N/A   Scattered Clouds
3:45 PM 80.6 °F 81.1 °F 59.0 °F 48% 29.82 in 10.0 mi West 11.5 mph 17.3 mph N/A   Scattered Clouds
4:45 PM 80.6 °F 81.5 °F 60.8 °F 51% 29.81 in 10.0 mi West 11.5 mph 17.3 mph N/A   Scattered Clouds
5:45 PM 80.6 °F 81.5 °F 60.8 °F 51% 29.80 in 10.0 mi WNW 11.5 mph - N/A   Scattered Clouds
6:45 PM 78.8 °F - 60.8 °F 54% 29.81 in 10.0 mi West 5.8 mph - N/A   Scattered Clouds
7:45 PM 78.8 °F - 60.8 °F 54% 29.81 in 10.0 mi West 5.8 mph - N/A   Scattered Clouds
8:45 PM 75.2 °F - 62.6 °F 65% 29.82 in 10.0 mi WSW 4.6 mph - N/A   Scattered Clouds
9:45 PM 73.4 °F - 64.4 °F 73% 29.84 in 10.0 mi WSW 4.6 mph - N/A Rain Light Rain
10:16 PM 71.6 °F - 62.6 °F 73% 29.84 in 10.0 mi South 4.6 mph - N/A   Clear
10:35 PM 69.8 °F - 62.6 °F 78% 29.84 in 10.0 mi SSW 3.5 mph - N/A   Clear
10:40 PM 69.8 °F - 62.6 °F 78% 29.84 in 10.0 mi SSW 3.5 mph - N/A   Clear
10:57 PM 69.8 °F - 62.6 °F 78% 29.84 in 10.0 mi SSW 3.5 mph - N/A   Clear
11:15 PM 71.6 °F - 62.6 °F 73% 29.84 in 10.0 mi SW 3.5 mph - N/A   Clear
11:36 PM 69.8 °F - 62.6 °F 78% 29.84 in 10.0 mi SW 4.6 mph - N/A   Clear
11:56 PM 71.6 °F - 62.6 °F 73% 29.85 in 10.0 mi SW 3.5 mph - N/A   Clear